Overview Statistics Trail Chart Weather Telemetry Raw packets
 

This is the latest recevied weather packets stored in our database for station/object N6GPM. If no packets are shown the sender has not sent any weather packets the latest 10 day(s).

<< 12 13 14 15 16 17 18 >>
Time Temp. Humidity Pressure Rain* Wind** Luminosity Snow
1788594000 19.44° C 37% 1018.2 hPa 0 mm - 0 W/m² -
1788593695 20° C 35% 1018 hPa 0 mm - 0 W/m² -
1788593390 20° C 35% 1018.3 hPa 0 mm - 0 W/m² -
1788593085 20° C 33% 1018.2 hPa 0 mm - 0 W/m² -
1788592780 20° C 34% 1018.2 hPa 0 mm - 0 W/m² -
1788592477 20° C 38% 1018.3 hPa 0 mm - 0 W/m² -
1788592176 20° C 38% 1017.8 hPa 0 mm - 0 W/m² -
1788591873 20° C 38% 1018.1 hPa 0 mm - 0 W/m² -
1788591572 20° C 40% 1018.1 hPa 0 mm - 0 W/m² -
1788591270 20° C 39% 1017.9 hPa 0 mm - 0 W/m² -
1788590966 20° C 38% 1018.3 hPa 0 mm - 0 W/m² -
1788590660 20° C 44% 1018.1 hPa 0 mm - 0 W/m² -
1788590355 20° C 44% 1018 hPa 0 mm - 0 W/m² -
1788590049 20° C 44% 1018.1 hPa 0 mm - 0 W/m² -
1788589746 20.56° C 45% 1018.2 hPa 0 mm - 0 W/m² -
1788589440 20.56° C 45% 1018 hPa 0 mm - 0 W/m² -
1788589135 20.56° C 45% 1017.7 hPa 0 mm - 0 W/m² -
1788588828 20.56° C 45% 1017.9 hPa 0 mm - 0 W/m² -
1788588523 20.56° C 44% 1017.7 hPa 0 mm - 0 W/m² -
1788588220 20.56° C 44% 1017.7 hPa 0 mm - 0 W/m² -
1788587919 20.56° C 44% 1018 hPa 0 mm - 0 W/m² -
1788587614 20.56° C 44% 1017.7 hPa 0 mm - 0 W/m² -
1788587313 20.56° C 44% 1017.6 hPa 0 mm - 0 W/m² -
1788587010 20.56° C 45% 1017.6 hPa 0 mm - 0 W/m² -
1788586710 20.56° C 44% 1017.8 hPa 0 mm - 0 W/m² -

* Rain latest hour (hover to see other rain measurements)
** Current wind speed in m/s (hover to see current wind gust speed)